Location: Stendal
(52.5994°N, 11.8400°E)
Time: 13:07:42
(UTC+02:00)

N. Korean satellite - Visible Passes

Search period start: 03 October 2022 00:00
Search period end: 13 October 2022 00:00
Orbit: 426 x 468 km, 97.3° (Epoch: 02 October)

Date Brightness Start Highest point End Pass type
(mag) Time Alt. Az. Time Alt. Az. Time Alt. Az.
03 Oct 9.6 05:39:07 10° NE 05:41:12 16° E 05:43:17 10° SE visible
04 Oct 6.7 06:35:00 10° NNE 06:38:16 70° ESE 06:41:32 10° S visible
05 Oct 8.8 05:59:23 10° NE 06:02:11 26° E 06:04:58 10° SSE visible
06 Oct 10.0 05:24:57 10° ENE 05:25:52 11° E 05:26:46 10° ESE visible
07 Oct 7.6 06:19:43 10° NNE 06:22:53 44° E 06:26:02 10° S visible
08 Oct 9.5 05:44:14 10° NE 05:46:34 18° E 05:48:52 10° SE visible
09 Oct 6.4 06:40:01 10° NNE 06:43:18 81° ESE 06:46:35 10° SSW visible
10 Oct 8.6 06:04:03 10° NNE 06:06:58 29° E 06:09:53 10° SSE visible
11 Oct 9.8 05:29:00 10° ENE 05:30:25 12° E 05:31:49 10° ESE visible
12 Oct 7.4 06:23:54 10° NNE 06:27:07 50° E 06:30:19 10° S visible
